Date,TemperatureHighF,TemperatureAvgF,TemperatureLowF,DewpointHighF,DewpointAvgF,DewpointLowF,HumidityHigh,HumidityAvg,HumidityLow,PressureMaxIn,PressureMinIn,WindSpeedMaxMPH,WindSpeedAvgMPH,GustSpeedMaxMPH,PrecipitationSumIn
2013-1-1,36.0,32.7,25.3,28.9,22.8,12.2,79,67,54,30.08,29.89,17,5,0,0.08
2013-1-2,29.3,24.4,19.8,16.3,14.0,12.6,75,64,55,30.29,30.01,10,4,0,0.00
2013-1-3,32.4,22.6,8.2,21.6,14.5,5.4,93,72,52,30.28,30.07,16,3,0,0.00
2013-1-4,34.0,31.2,29.7,22.3,20.5,18.8,71,64,57,30.16,30.03,20,6,0,0.00
2013-1-5,35.8,30.2,25.9,24.1,21.7,19.0,84,70,60,30.41,30.11,11,3,0,0.00
2013-1-6,41.9,33.2,26.6,30.5,26.1,22.3,86,76,56,30.13,29.98,8,2,0,0.00
2013-1-7,40.8,34.4,22.8,30.5,26.8,20.8,94,74,55,30.39,30.04,10,3,0,0.00
2013-1-8,39.4,25.4,16.7,26.8,21.3,15.0,97,85,59,30.38,30.21,4,1,0,0.00
2013-1-9,42.8,29.2,18.1,34.6,24.8,16.9,97,85,56,30.33,30.04,11,3,0,0.00
2013-1-10,45.0,35.0,24.6,28.9,26.6,21.8,91,72,51,30.56,30.25,10,2,0,0.00
2013-1-11,42.8,36.2,31.8,34.5,30.8,26.7,96,81,61,30.39,29.96,9,3,0,0.29
2013-1-12,41.2,36.7,34.3,37.9,35.4,33.3,97,95,87,30.09,29.97,7,1,0,0.00
2013-1-13,44.2,39.4,36.0,42.6,38.4,35.2,97,96,92,30.01,29.81,6,1,0,0.02
2013-1-14,47.1,42.1,36.0,44.0,33.2,24.9,97,73,47,30.24,29.77,11,4,0,0.12
2013-1-15,36.3,31.2,23.7,27.4,24.3,21.5,94,76,60,30.31,30.06,5,1,0,0.00
2013-1-16,34.5,31.5,29.3,31.6,29.2,27.2,93,91,87,30.05,29.74,10,3,0,0.00
2013-1-17,39.6,34.1,31.5,30.1,27.9,25.1,87,78,67,30.04,29.79,9,3,0,0.21
2013-1-18,31.8,25.4,16.9,25.7,12.4,7.3,89,58,39,30.38,29.89,13,5,0,0.00
2013-1-19,53.8,32.5,15.8,26.5,18.5,12.1,89,61,27,30.20,29.68,7,2,0,0.01
2013-1-20,46.6,34.1,21.2,30.2,15.3,9.2,71,47,33,30.01,29.57,23,8,0,0.00
2013-1-21,26.4,22.6,16.2,21.2,13.5,3.4,89,68,54,29.95,29.67,14,4,0,0.00
2013-1-22,16.2,11.7,5.9,3.3,-1.5,-6.0,70,55,41,30.11,29.76,20,6,0,0.00
2013-1-23,16.5,9.8,2.7,4.0,0.2,-2.1,81,65,49,30.19,29.97,12,4,0,0.00
2013-1-24,23.4,14.0,5.4,6.6,2.4,-1.2,84,62,36,30.43,29.94,14,4,0,0.00
2013-1-25,16.9,10.7,5.0,11.4,4.3,-0.1,87,75,56,30.38,29.92,7,2,0,0.00
2013-1-26,27.7,16.3,7.0,15.7,10.0,3.7,89,77,58,30.31,29.89,6,2,0,0.00
2013-1-27,33.4,19.4,4.5,17.4,11.0,1.7,89,72,44,30.50,30.24,5,1,0,0.00
2013-1-28,31.8,27.9,22.5,30.5,24.8,16.5,95,88,73,30.33,29.81,6,2,0,0.01
2013-1-29,37.0,33.8,31.8,36.0,32.5,30.5,96,95,91,30.02,29.77,6,1,0,0.57
2013-1-30,56.1,43.4,33.4,52.7,41.6,32.4,96,94,84,29.77,29.02,8,2,0,1.11
2013-1-31,54.9,33.8,23.7,51.1,23.8,11.2,92,67,48,29.66,28.93,20,8,0,0.51
2013-2-1,25.7,21.4,15.4,15.0,9.0,4.6,69,58,45,30.21,29.59,17,7,0,0.00
2013-2-2,24.4,18.2,12.9,17.8,10.2,3.7,87,71,51,30.20,29.80,10,4,0,0.00
2013-2-3,30.0,22.6,17.1,22.7,16.6,9.9,88,78,62,29.83,29.68,11,3,0,0.00
2013-2-4,29.5,23.2,17.2,19.6,13.0,8.9,84,65,49,29.93,29.71,10,4,0,0.00
2013-2-5,29.3,26.2,23.2,25.5,21.9,19.6,92,84,72,29.83,29.69,6,2,0,0.00
2013-2-6,36.7,28.9,19.6,24.9,18.3,13.6,84,66,41,30.21,29.72,14,4,0,0.00
2013-2-7,37.8,26.2,14.9,22.2,16.2,11.2,87,67,52,30.36,30.02,9,3,0,0.00
2013-2-8,34.7,32.2,23.5,31.6,26.6,17.4,93,80,58,30.04,29.68,12,4,0,0.06
2013-2-9,33.4,25.2,16.7,17.7,14.2,12.1,85,63,44,30.31,29.83,11,5,0,0.00
2013-2-10,36.5,24.6,9.7,21.9,15.7,6.6,90,70,50,30.38,30.04,8,3,0,0.00
2013-2-11,42.4,37.0,32.0,35.6,29.4,18.8,92,75,48,30.03,29.49,16,4,0,0.03
2013-2-12,39.2,35.4,24.3,25.3,23.2,19.6,84,61,53,29.89,29.61,17,6,0,0.00
2013-2-13,40.5,29.6,18.3,30.6,24.1,15.9,93,81,59,29.83,29.47,7,2,0,0.00
2013-2-14,42.1,33.9,26.2,31.0,27.8,23.9,94,79,64,29.87,29.60,9,2,0,0.08
2013-2-15,46.9,37.4,29.8,29.9,27.0,23.2,89,67,44,29.90,29.72,14,4,0,0.00
2013-2-16,36.9,30.5,25.7,23.3,14.5,8.1,78,53,32,29.91,29.70,8,3,0,0.00
2013-2-17,26.8,21.6,17.2,15.7,7.4,0.5,72,55,35,30.09,29.67,23,8,0,0.00
2013-2-18,37.2,24.9,12.7,16.8,10.3,6.0,74,55,31,30.23,29.95,10,3,0,0.00
2013-2-19,37.6,30.6,24.3,32.0,22.6,15.0,90,72,57,29.95,29.51,19,4,0,0.25
2013-2-20,28.8,23.5,20.7,17.4,11.4,8.6,66,60,49,30.01,29.65,19,8,0,0.00
2013-2-21,34.0,26.0,21.4,16.4,14.1,11.6,72,61,46,30.26,29.88,19,6,0,0.00
2013-2-22,32.9,27.3,20.5,23.2,19.0,13.2,75,71,60,30.26,30.01,12,4,0,0.00
2013-2-23,37.0,34.0,31.5,32.2,28.7,23.2,93,81,71,30.00,29.70,7,2,0,0.04
2013-2-24,36.7,32.9,28.6,32.0,24.6,18.5,93,72,52,29.98,29.64,14,4,0,0.00
2013-2-25,45.5,31.7,18.9,25.8,20.6,15.2,86,65,41,30.12,29.89,8,2,0,0.00
2013-2-26,40.8,34.0,25.2,31.2,26.5,20.4,90,74,57,30.11,29.60,18,7,0,0.21
2013-2-27,39.6,35.7,32.7,35.9,32.8,30.8,93,89,83,29.58,29.39,9,3,0,0.95
2013-2-28,42.3,36.9,33.8,33.5,29.9,28.0,90,76,62,29.57,29.42,9,3,0,0.01
2013-3-1,38.8,35.8,30.6,28.1,24.9,19.5,75,64,56,29.79,29.50,12,4,0,0.00
2013-3-2,36.5,31.2,27.0,21.0,19.6,17.6,72,62,50,29.79,29.63,11,5,0,0.00
2013-3-3,34.3,28.8,23.7,20.8,18.1,15.4,83,64,53,29.76,29.63,14,6,0,0.00
2013-3-4,33.8,28.6,25.0,20.6,17.8,13.8,68,64,55,29.92,29.72,19,7,0,0.00
2013-3-5,40.1,32.0,27.1,25.1,21.8,18.5,72,66,54,29.99,29.71,10,4,0,0.00
2013-3-6,43.3,38.6,32.9,29.6,27.5,23.7,69,64,55,29.92,29.65,12,6,0,0.00
2013-3-7,46.9,38.0,28.6,28.0,24.2,21.3,77,58,40,30.10,29.89,11,3,0,0.00
2013-3-8,48.4,36.1,26.6,25.5,22.1,19.5,74,58,39,30.26,30.02,15,4,0,0.00
2013-3-9,57.6,37.4,21.6,28.3,23.4,18.5,88,61,26,30.30,30.11,5,2,0,0.00
2013-3-10,63.1,43.7,26.6,31.3,25.1,22.0,84,54,25,30.18,30.00,8,2,0,0.00
2013-3-11,56.7,50.7,44.2,45.4,33.4,20.7,74,53,31,30.02,29.69,12,5,0,0.01
2013-3-12,55.0,46.8,39.0,47.9,39.3,28.7,90,75,63,29.80,29.60,13,4,0,0.62
2013-3-13,42.8,35.1,28.0,29.9,24.2,15.5,80,65,43,29.85,29.66,17,5,0,0.00
2013-3-14,38.7,31.3,27.3,19.7,14.0,10.6,72,50,33,29.95,29.79,23,9,0,0.00
2013-3-15,45.0,35.6,24.8,30.7,23.6,14.3,70,62,52,29.94,29.58,11,5,0,0.00
2013-3-16,37.4,31.3,29.3,27.8,25.7,22.1,90,80,64,29.80,29.61,8,2,0,0.00
2013-3-17,37.8,31.7,23.7,27.4,21.5,17.5,91,67,46,30.14,29.75,10,3,0,0.09
2013-3-18,30.2,27.0,24.3,27.9,20.8,15.3,91,78,58,30.20,29.72,10,5,0,0.00
2013-3-19,48.0,35.7,29.7,34.4,26.7,16.9,92,72,37,29.75,29.53,20,5,0,0.14
2013-3-20,41.4,33.8,27.5,24.2,18.5,15.7,72,54,36,29.80,29.64,15,6,0,0.00
2013-3-21,33.4,26.7,17.2,19.0,13.3,8.5,76,58,37,29.71,29.56,16,5,0,0.00
2013-3-22,37.8,30.3,23.9,21.6,19.6,17.8,84,65,49,29.81,29.62,18,6,0,0.00
2013-3-23,42.8,34.4,27.1,23.8,20.4,18.7,72,57,41,29.90,29.77,15,5,0,0.00
2013-3-24,44.8,35.7,25.7,23.2,20.7,17.9,74,56,38,29.89,29.54,11,4,0,0.00
2013-3-25,38.3,34.9,32.0,31.0,27.7,22.2,90,76,53,29.60,29.45,9,4,0,0.12
2013-3-26,51.3,39.3,30.4,32.5,28.2,22.8,91,67,40,29.82,29.59,12,3,0,0.03
2013-3-27,47.1,39.3,32.7,29.7,26.9,24.7,75,62,44,29.97,29.77,19,6,0,0.00
2013-3-28,46.0,39.9,34.5,29.6,26.7,24.2,79,60,42,30.10,29.88,12,4,0,0.00
2013-3-29,53.1,42.2,31.3,32.7,28.9,24.3,75,60,38,30.12,29.95,10,4,0,0.00
2013-3-30,58.5,40.6,24.6,28.5,23.5,16.9,88,56,20,30.13,29.92,8,3,0,0.00
2013-3-31,43.9,37.8,27.9,40.0,31.4,20.7,90,78,59,29.94,29.60,5,2,0,0.49
2013-4-1,48.4,41.4,28.4,40.3,26.9,10.5,91,61,23,29.85,29.50,21,6,0,0.04
2013-4-2,42.1,33.0,26.4,18.5,13.7,10.7,67,46,28,30.02,29.78,22,7,0,0.00
2013-4-3,43.9,32.1,22.1,18.9,13.8,8.7,71,48,28,30.28,29.96,23,6,0,0.00
2013-4-4,56.8,37.9,20.8,21.1,15.2,11.2,71,44,18,30.30,29.86,7,3,0,0.00
2013-4-5,59.0,42.9,24.4,25.6,19.0,12.7,72,42,19,29.94,29.70,19,5,0,0.00
2013-4-6,55.4,41.7,28.2,20.4,16.3,12.2,63,38,19,30.24,29.94,7,3,0,0.00
2013-4-7,70.9,56.1,43.3,46.6,31.6,18.2,66,40,30,30.00,29.72,10,4,0,0.00
2013-4-8,77.0,60.4,40.3,48.1,42.8,36.2,85,55,33,29.97,29.73,7,3,0,0.00
2013-4-9,83.7,71.0,59.5,53.2,48.7,42.1,70,47,27,29.91,29.67,14,5,0,0.00
2013-4-10,81.5,66.5,59.4,60.0,54.5,49.9,91,67,44,29.77,29.58,30,4,0,0.93
2013-4-11,59.5,49.5,43.9,56.9,44.4,38.6,91,83,74,29.84,29.62,11,6,0,0.06
2013-4-12,50.4,47.8,44.4,45.1,42.8,35.2,91,83,63,29.71,29.48,17,6,0,0.64
2013-4-13,53.2,46.7,41.2,36.4,34.2,32.5,73,62,50,29.82,29.63,14,4,0,0.00
2013-4-14,59.9,48.6,35.4,37.7,31.7,25.0,72,53,36,30.02,29.81,14,4,0,0.00
2013-4-15,68.9,55.9,43.2,47.5,41.5,34.2,72,59,45,30.11,29.94,9,5,0,0.00
2013-4-16,72.5,61.7,55.8,58.3,51.9,46.1,87,71,59,30.09,29.90,10,4,0,0.29
2013-4-17,70.2,58.9,50.4,56.5,40.4,33.7,89,54,26,30.17,29.98,10,5,0,0.00
2013-4-18,66.2,59.1,50.4,55.4,47.6,36.6,78,66,51,30.06,29.78,16,5,0,0.00
2013-4-19,74.5,63.5,48.4,61.1,52.9,36.3,85,69,61,29.78,29.33,20,6,0,0.27
2013-4-20,52.5,45.2,35.8,36.2,27.7,18.7,67,51,37,30.29,29.60,26,7,0,0.00
2013-4-21,54.1,40.1,24.1,27.0,22.1,18.5,82,51,29,30.52,30.28,9,3,0,0.00
2013-4-22,59.9,46.8,32.4,32.4,27.5,24.3,74,50,27,30.48,30.25,14,4,0,0.00
2013-4-23,63.3,50.4,41.9,38.6,34.7,28.3,71,56,39,30.31,29.94,11,4,0,0.00
2013-4-24,73.4,52.5,37.0,56.2,42.8,32.9,87,71,47,29.94,29.52,19,3,0,0.42
2013-4-25,65.3,50.3,38.1,35.2,30.5,23.7,73,49,23,30.17,29.93,11,5,0,0.00
2013-4-26,69.6,51.5,36.3,36.4,29.6,21.6,79,48,18,30.35,30.15,11,3,0,0.00
2013-4-27,75.9,53.4,31.5,39.4,32.4,25.9,81,50,22,30.35,30.11,7,2,0,0.00
2013-4-28,68.0,54.1,37.9,47.6,40.2,33.5,84,61,35,30.12,29.96,14,4,0,0.00
2013-4-29,57.9,55.2,53.2,51.3,46.4,41.3,84,73,59,29.98,29.90,11,4,0,0.00
2013-4-30,65.1,58.5,50.4,51.6,49.7,46.7,87,73,61,30.15,29.96,12,3,0,0.00
2013-5-1,75.9,60.1,43.9,46.6,35.8,24.1,88,47,16,30.29,30.15,10,4,0,0.00
2013-5-2,77.2,60.2,39.6,44.3,38.6,32.1,85,50,20,30.33,30.15,11,3,0,0.00
2013-5-3,73.8,60.4,43.9,43.8,40.6,34.9,83,51,32,30.25,30.09,9,4,0,0.00
2013-5-4,75.9,59.2,39.4,45.5,40.4,34.0,83,53,30,30.20,29.99,11,4,0,0.00
2013-5-5,76.1,59.5,40.6,45.5,36.1,26.3,89,49,17,30.12,29.94,11,4,0,0.00
2013-5-6,77.5,60.0,39.6,53.2,45.1,35.2,85,59,41,30.08,29.91,8,3,0,0.00
2013-5-7,77.2,65.0,52.0,54.2,51.0,47.4,86,63,39,29.97,29.82,11,4,0,0.00
2013-5-8,65.1,59.9,56.1,56.8,55.2,52.8,92,85,65,29.89,29.77,10,3,0,1.29
2013-5-9,70.7,60.3,53.8,59.6,54.6,51.4,92,82,58,29.85,29.74,7,2,0,0.19
2013-5-10,69.3,59.7,53.4,61.0,56.2,51.4,94,88,72,29.88,29.68,6,2,0,0.42
2013-5-11,70.7,62.1,56.8,60.4,54.6,45.6,93,78,48,29.67,29.58,13,3,0,0.25
2013-5-12,58.5,50.4,41.0,46.1,35.7,29.1,85,58,35,29.84,29.60,17,5,0,0.04
2013-5-13,53.1,44.2,33.3,31.6,27.2,23.3,77,53,33,30.01,29.84,12,4,0,0.00
2013-5-14,63.0,46.5,28.9,40.3,29.5,23.0,85,56,23,30.10,29.87,9,3,0,0.00
2013-5-15,87.4,63.9,46.6,61.9,49.0,40.1,78,61,38,29.89,29.45,14,3,0,0.00
2013-5-16,86.9,70.1,54.5,57.0,46.2,37.5,83,49,19,29.80,29.58,13,3,0,0.00
2013-5-17,75.9,61.7,44.8,45.5,42.3,38.0,78,51,32,30.05,29.78,12,3,0,0.00
2013-5-18,67.8,61.7,54.3,53.8,48.1,42.0,68,61,52,30.10,30.02,8,4,0,0.00
2013-5-19,65.7,61.7,57.9,57.2,54.6,51.4,84,78,69,30.08,29.96,12,4,0,0.00
2013-5-20,86.9,71.8,60.8,66.0,60.9,57.0,88,70,50,29.96,29.75,8,3,0,0.00
2013-5-21,94.5,77.7,61.0,69.3,63.7,58.4,92,65,40,29.82,29.59,10,3,0,0.00
2013-5-22,93.7,76.2,64.0,65.2,62.5,59.8,89,66,36,29.72,29.57,17,3,0,0.20
2013-5-23,81.0,67.5,61.2,64.8,61.0,57.3,91,81,51,29.68,29.52,10,2,0,0.11
2013-5-24,61.5,51.0,44.4,59.2,41.9,34.1,92,72,56,30.04,29.57,15,5,0,0.05
2013-5-25,64.8,51.7,38.5,35.7,33.5,30.9,79,52,30,30.06,29.93,21,5,0,0.00
2013-5-26,72.3,55.4,37.4,37.1,33.6,30.2,84,49,21,30.09,29.95,16,4,0,0.00
2013-5-27,78.1,58.7,38.3,45.3,38.8,32.1,80,51,25,30.18,29.97,7,3,0,0.00
2013-5-28,60.6,56.4,51.8,55.8,50.8,44.0,89,82,66,30.03,29.91,8,2,0,0.36
2013-5-29,90.3,72.5,59.0,67.3,61.2,56.0,93,71,42,29.94,29.85,11,3,0,0.50
2013-5-30,97.0,77.1,59.7,66.9,61.8,56.5,90,63,35,30.03,29.88,8,2,0,0.00
2013-5-31,94.6,78.1,61.5,68.7,62.8,58.2,90,63,38,29.99,29.76,8,2,0,0.00
2013-6-1,93.4,78.6,61.5,68.8,63.2,57.3,88,62,42,29.84,29.65,10,3,0,0.00
2013-6-2,88.0,77.2,69.6,66.9,62.3,58.4,82,62,37,29.69,29.57,15,3,0,0.00
2013-6-3,80.4,69.2,55.4,59.2,52.2,39.2,84,57,31,29.86,29.67,11,3,0,0.00
2013-6-4,84.6,63.1,44.4,50.6,43.2,37.7,80,51,25,30.00,29.86,9,3,0,0.00
2013-6-5,81.0,64.4,44.4,52.5,46.6,40.5,87,56,33,30.09,29.88,7,3,0,0.00
2013-6-6,70.9,65.5,60.6,53.7,50.9,47.3,77,60,49,29.90,29.77,10,4,0,0.06
2013-6-8,77.2,69.3,61.7,55.4,54.5,53.2,76,60,47,29.89,29.83,4,1,0,0.00
2013-6-9,82.6,73.1,52.9,60.7,56.1,50.0,90,57,41,30.08,29.96,6,3,0,0.00
2013-6-10,71.8,66.7,63.3,65.1,61.2,55.8,91,83,70,29.96,29.59,12,4,0,0.75
2013-6-11,76.6,67.1,64.2,65.3,55.8,-99.9,91,73,58,29.69,29.57,13,-27,0,0.04
2013-6-12,86.4,71.1,59.2,63.6,58.8,55.2,88,68,40,29.75,29.65,9,2,0,0.01
2013-6-13,73.8,66.0,59.7,65.6,60.2,53.2,91,82,69,29.65,29.27,11,3,0,0.94
2013-6-14,81.0,67.2,56.3,58.8,54.2,51.3,85,65,42,29.83,29.52,12,2,0,0.00
2013-6-15,82.8,67.4,52.2,57.9,52.8,49.1,90,63,34,29.94,29.83,10,2,0,0.00
2013-6-16,81.1,68.3,58.3,64.9,57.3,50.0,79,69,57,29.88,29.64,12,2,0,0.00
2013-6-17,88.5,73.5,62.2,63.6,60.1,55.9,86,66,35,29.79,29.67,8,3,0,0.01
2013-6-18,79.7,68.4,58.3,62.1,57.4,47.7,89,69,53,29.80,29.65,11,3,0,0.00
2013-6-19,82.6,65.4,48.6,55.2,48.3,45.0,88,57,31,30.01,29.80,8,2,0,0.00
2013-6-20,88.0,67.5,47.1,62.8,53.8,44.0,89,64,37,30.12,30.00,6,2,0,0.00
2013-6-21,88.9,72.4,58.5,66.0,60.0,55.3,90,68,41,30.12,29.99,5,2,0,0.00
2013-6-22,90.3,75.5,58.8,68.2,62.2,55.6,90,65,46,30.07,29.90,7,2,0,0.00
2013-6-23,95.0,79.5,64.0,71.2,65.5,60.4,89,65,42,30.00,29.86,9,2,0,0.00
2013-6-24,96.8,80.8,66.2,70.2,65.2,62.2,88,62,36,29.96,29.83,7,2,0,0.00
2013-6-25,87.8,75.8,66.7,70.8,65.9,63.0,89,73,53,29.88,29.68,12,3,0,0.27
2013-6-26,89.1,73.6,65.3,69.7,64.7,62.0,90,75,53,29.75,29.66,7,2,0,0.08
2013-6-27,79.3,69.7,64.6,69.1,65.1,61.6,91,86,68,29.69,29.40,12,3,0,1.07
2013-6-28,86.5,71.7,64.0,67.9,63.6,59.1,92,77,54,29.42,29.26,22,2,0,0.00
2013-6-29,86.5,72.7,60.8,65.2,61.4,57.5,89,70,43,29.55,29.36,11,2,0,0.00
2013-6-30,89.6,73.7,61.2,72.2,64.5,57.9,90,75,47,29.78,29.55,8,2,0,0.59
2013-7-1,78.4,70.4,66.4,70.7,66.3,63.0,91,87,77,29.83,29.71,7,2,0,0.58
2013-7-2,87.3,75.0,68.7,75.2,69.7,66.2,92,84,66,29.96,29.81,11,2,0,0.01
2013-7-3,90.7,77.9,69.1,73.3,69.9,66.0,90,77,57,30.05,29.95,8,2,0,0.00
2013-7-4,94.5,81.2,70.0,74.2,70.6,66.9,90,72,47,30.05,29.94,8,2,0,0.00
2013-7-5,93.9,79.0,68.0,76.1,70.4,65.0,90,77,49,30.03,29.89,9,2,0,0.02
2013-7-6,95.9,79.2,69.1,74.8,70.2,66.2,91,76,46,30.02,29.89,10,2,0,0.00
2013-7-7,92.1,77.2,68.9,73.7,69.3,65.8,90,78,51,29.93,29.83,8,2,0,0.41
2013-7-8,82.6,72.1,67.1,72.2,67.0,64.1,92,85,66,29.93,29.84,14,2,0,0.40
2013-7-9,82.0,73.0,66.4,73.6,68.1,63.7,91,85,73,29.95,29.82,8,2,0,0.31
2013-7-10,87.1,75.5,67.3,75.0,69.3,63.9,91,82,65,29.83,29.66,13,2,0,0.36
2013-7-11,86.5,74.0,65.5,67.7,62.4,56.3,91,70,36,29.83,29.69,9,2,0,0.00
2013-7-12,78.6,69.4,61.3,67.7,62.2,56.9,89,78,67,29.98,29.82,7,2,0,0.02
2013-7-13,87.1,72.1,65.7,73.5,66.7,62.0,90,84,62,30.13,29.94,7,2,0,0.11
2013-7-14,96.1,79.0,66.6,74.3,68.8,63.6,91,74,45,30.18,30.07,5,2,0,0.00
2013-7-15,96.3,78.6,67.5,75.8,70.2,64.1,90,77,47,30.17,30.06,14,2,0,0.57
2013-7-16,97.2,81.7,70.7,76.5,71.1,68.3,92,73,42,30.14,30.00,5,1,0,0.01
2013-7-17,97.5,82.2,70.0,77.6,72.0,66.3,89,73,49,30.11,29.92,7,2,0,0.00
2013-7-18,98.2,80.6,70.0,78.0,71.0,66.0,89,75,44,29.98,29.85,14,3,0,0.37
2013-7-19,97.0,82.5,68.4,77.5,70.9,65.4,91,71,44,29.87,29.63,9,2,0,0.00
2013-7-20,90.9,80.5,73.9,72.6,69.8,67.0,79,71,48,29.72,29.58,12,3,0,0.00
2013-7-21,88.7,75.7,66.7,70.5,65.9,55.3,88,73,33,29.82,29.72,7,2,0,0.00
2013-7-22,86.5,74.1,66.4,75.1,67.9,62.7,89,81,69,29.80,29.60,8,2,0,0.62
2013-7-23,90.1,75.5,68.7,71.3,67.1,61.9,91,77,48,29.61,29.49,11,2,0,0.01
2013-7-24,79.7,69.9,59.2,61.2,56.5,52.7,83,64,43,29.84,29.52,11,3,0,0.00
2013-7-25,78.8,63.6,48.9,58.0,52.9,45.7,90,70,45,29.93,29.84,9,2,0,0.00
2013-7-26,86.2,67.9,52.0,62.7,55.4,48.9,90,68,40,29.98,29.85,5,2,0,0.00
2013-7-27,79.0,67.7,55.2,69.3,61.7,52.2,90,81,70,29.89,29.73,5,2,0,0.03
2013-7-28,87.6,71.9,61.7,65.7,61.7,56.0,91,73,36,29.87,29.70,8,2,0,0.40
2013-7-29,80.4,66.3,55.0,59.3,54.9,51.8,89,69,42,30.00,29.87,8,2,0,0.00
2013-7-30,86.4,67.9,53.8,62.9,55.7,49.9,87,68,39,30.08,29.98,8,3,0,0.00
2013-7-31,85.6,69.2,57.0,65.0,58.7,54.1,90,72,42,30.04,29.81,6,2,0,0.00
2013-8-1,86.5,72.8,65.8,70.6,63.9,60.2,85,75,50,29.81,29.60,5,2,0,0.00
2013-8-2,84.0,69.7,58.1,64.1,57.9,54.6,88,68,39,29.79,29.69,9,3,0,0.00
2013-8-3,85.8,70.5,58.1,67.7,60.6,53.6,90,73,38,29.78,29.67,9,2,0,0.26
2013-8-4,81.1,66.1,54.3,58.3,54.1,50.5,87,68,43,29.89,29.76,8,2,0,0.00
2013-8-5,76.8,63.4,51.4,59.3,52.3,48.3,89,70,39,29.99,29.87,7,2,0,0.00
2013-8-6,78.3,66.1,53.2,63.8,57.4,50.1,90,75,56,29.93,29.86,9,2,0,0.00
2013-8-7,75.9,69.6,63.9,67.3,63.0,59.8,90,80,72,29.90,29.80,7,3,0,0.13
2013-8-8,88.9,73.1,62.6,74.0,66.4,59.6,92,81,60,29.87,29.72,9,2,0,0.00
2013-8-9,88.5,75.9,68.2,76.1,70.1,63.8,90,83,63,29.80,29.67,8,2,0,0.32
2013-8-10,85.6,71.7,60.8,67.1,60.4,55.6,91,71,40,29.92,29.80,13,3,0,0.00
2013-8-11,84.7,69.5,60.1,66.2,59.2,54.9,87,72,43,29.99,29.86,6,1,0,0.00
2013-8-12,86.2,69.0,57.6,66.3,60.5,54.7,91,76,45,29.90,29.75,10,2,0,0.07
2013-8-13,84.4,71.0,61.3,67.6,60.9,49.2,91,72,47,29.75,29.58,14,4,0,0.01
2013-8-14,77.2,61.8,50.4,53.9,49.2,45.1,82,65,40,29.95,29.72,9,3,0,0.00
2013-8-15,79.7,60.8,47.3,56.8,49.0,43.9,88,69,37,30.06,29.90,7,2,0,0.00
2013-8-16,86.0,64.7,49.1,58.0,51.3,46.3,91,67,31,30.05,29.94,7,2,0,0.00
2013-8-17,81.9,64.9,50.4,60.4,54.1,47.6,91,71,42,30.16,30.04,7,2,0,0.00
2013-8-18,78.8,65.7,58.1,62.1,57.5,54.2,87,76,55,30.14,29.99,7,1,0,0.00
2013-8-19,84.7,68.6,59.9,66.4,60.4,56.3,88,77,51,30.00,29.84,6,1,0,0.01
2013-8-20,88.9,72.7,62.2,63.9,60.2,56.0,90,69,36,30.02,29.88,7,2,0,0.00
2013-8-21,88.9,72.7,57.7,67.1,60.9,54.8,91,70,41,30.07,29.85,6,2,0,0.00
2013-8-22,88.7,74.6,64.6,69.1,65.2,61.8,92,74,49,29.89,29.69,11,2,0,0.50
2013-8-23,84.2,71.2,61.2,64.5,59.7,51.8,92,71,33,30.01,29.80,8,2,0,0.01
2013-8-24,84.0,65.6,51.8,59.2,53.1,48.8,92,69,33,30.18,30.02,6,2,0,0.00
2013-8-25,86.9,67.0,50.9,61.0,54.9,48.4,92,69,37,30.27,30.04,8,2,0,0.00
2013-8-26,90.1,74.6,62.6,66.6,62.0,56.5,87,67,43,30.09,29.80,9,3,0,0.02
2013-8-27,90.0,76.5,66.0,71.9,67.4,63.0,91,75,53,29.81,29.73,10,2,0,0.18
2013-8-28,81.0,73.3,69.4,73.0,69.4,66.7,92,88,73,29.77,29.65,7,1,0,0.32
2013-8-29,95.9,76.8,66.6,71.5,67.8,64.3,93,76,42,29.86,29.73,5,2,0,0.00
2013-8-30,93.0,75.3,63.5,72.8,65.8,61.1,92,75,44,29.86,29.59,8,2,0,0.00
2013-8-31,93.2,77.2,67.1,73.7,68.5,63.7,90,76,47,29.66,29.56,9,2,0,0.02
2013-9-1,89.8,76.7,68.4,73.0,69.5,66.0,92,80,58,29.66,29.57,6,2,0,0.00
2013-9-2,90.5,75.8,69.4,73.7,67.5,61.6,92,77,49,29.63,29.49,10,2,0,0.00
2013-9-3,74.3,67.6,61.2,63.7,58.7,54.5,92,74,53,29.81,29.60,10,3,0,0.00
2013-9-4,85.1,68.1,54.3,60.7,56.7,52.0,92,70,40,29.92,29.79,9,3,0,0.00
2013-9-5,78.8,67.7,56.8,60.4,50.4,39.2,86,59,27,30.06,29.82,11,4,0,0.00
2013-9-6,77.4,57.9,43.5,48.3,42.9,38.2,89,62,27,30.16,29.98,8,2,0,0.00
2013-9-7,83.7,63.0,44.8,58.4,47.9,42.0,91,63,27,29.98,29.71,6,2,0,0.08
2013-9-8,77.7,65.7,55.6,64.6,56.9,47.8,93,75,44,29.96,29.71,9,3,0,0.01
2013-9-9,76.8,58.9,41.7,59.6,50.0,39.8,93,75,43,30.09,29.91,7,2,0,0.04
2013-9-10,95.0,74.6,60.3,75.5,66.4,58.3,93,78,52,29.99,29.85,10,2,0,0.00
2013-9-11,93.7,76.0,69.3,77.0,70.8,67.0,93,85,57,29.95,29.81,9,2,0,0.00
2013-9-12,84.6,72.0,62.1,74.8,68.3,59.7,94,88,70,29.84,29.55,6,2,0,0.18
2013-9-13,69.6,61.8,54.3,59.5,53.2,46.5,95,75,48,29.82,29.56,10,3,0,0.02
2013-9-14,71.6,55.3,44.8,49.4,46.4,42.9,93,74,39,29.99,29.81,8,2,0,0.00
2013-9-15,71.2,54.6,41.4,55.9,48.4,40.1,95,82,50,30.12,29.90,6,2,0,0.00
2013-9-16,71.1,60.6,52.0,57.6,52.9,42.1,94,77,50,30.18,29.89,8,3,0,0.03
2013-9-17,68.0,51.0,36.0,45.1,40.2,34.4,95,71,36,30.35,30.15,9,2,0,0.00
2013-9-18,75.9,53.8,38.5,48.8,43.1,36.9,95,73,31,30.21,29.98,8,2,0,0.00
2013-9-19,80.6,57.9,40.5,59.9,50.3,39.2,96,79,46,30.06,29.88,5,1,0,0.00
2013-9-20,82.0,62.5,53.2,60.9,55.8,51.5,96,81,49,29.92,29.72,11,2,0,0.00
2013-9-21,67.6,63.2,57.9,64.0,60.6,56.8,96,91,84,29.73,29.45,9,2,0,0.75
2013-9-22,64.6,57.4,50.5,56.6,48.9,41.6,97,76,48,29.83,29.54,10,3,0,0.01
2013-9-23,69.3,54.9,42.8,46.7,43.1,39.5,95,67,40,29.97,29.83,7,2,0,0.00
2013-9-24,74.8,53.2,39.7,53.1,45.4,38.7,96,79,41,30.01,29.76,9,2,0,0.00
2013-9-25,75.2,54.3,40.5,55.1,46.9,39.7,97,80,40,29.89,29.71,7,1,0,0.00
2013-9-26,76.5,56.9,43.7,54.8,49.2,42.6,97,79,43,29.94,29.80,6,1,0,0.00
2013-9-27,75.0,59.9,50.5,56.3,51.5,48.9,96,77,41,30.08,29.95,6,2,0,0.00
2013-9-28,71.2,55.8,45.7,57.6,50.4,44.9,97,84,48,30.20,30.06,5,1,0,0.00
2013-9-29,75.2,56.7,46.0,54.5,49.0,44.9,97,79,41,30.08,29.91,6,2,0,0.00
2013-9-30,79.0,57.9,43.9,56.8,50.5,43.1,98,80,42,29.97,29.78,6,1,0,0.00
2013-10-1,79.2,63.9,54.0,62.7,56.4,52.3,96,80,43,29.91,29.77,11,2,0,0.00
2013-10-2,83.5,65.7,51.6,65.4,59.2,50.8,98,82,54,29.91,29.79,8,2,0,0.00
2013-10-3,82.6,66.0,51.8,66.1,60.0,51.3,98,83,57,30.00,29.84,6,2,0,0.00
2013-10-4,82.8,70.6,63.3,71.8,66.6,62.4,97,88,65,29.92,29.82,6,1,0,0.00
2013-10-5,85.8,71.6,61.3,70.5,66.6,61.0,99,86,57,29.94,29.82,9,1,0,0.01
2013-10-6,86.4,73.9,66.2,71.1,67.6,65.5,98,83,51,29.84,29.65,14,4,0,0.00
2013-10-7,75.0,64.2,49.1,66.8,56.7,44.6,97,78,53,29.90,29.51,12,4,0,0.78
2013-10-8,69.4,53.8,41.0,49.3,43.5,38.2,98,73,35,30.19,29.90,10,2,0,0.00
2013-10-9,65.1,50.6,37.4,48.8,41.7,36.9,99,76,37,30.29,30.12,9,2,0,0.00
2013-10-10,63.9,50.4,40.5,52.4,45.3,38.6,98,85,40,30.15,29.97,7,1,0,0.14
2013-10-11,63.0,54.6,50.0,58.0,53.2,49.2,99,95,80,29.99,29.91,7,2,0,1.51
2013-10-12,73.4,57.6,46.0,54.8,49.3,40.7,99,78,31,30.07,29.93,6,2,0,0.00
2013-10-13,69.1,59.9,53.1,56.0,54.0,49.8,97,82,61,30.19,30.07,8,2,0,0.00
2013-10-14,64.0,57.2,53.6,57.5,54.7,51.4,98,92,77,30.20,30.09,5,2,0,0.00
2013-10-15,73.2,61.3,52.7,57.7,55.0,51.9,99,82,55,30.10,29.89,7,2,0,0.00
2013-10-16,61.3,56.2,52.0,59.3,54.5,50.8,99,94,86,29.88,29.71,4,1,0,0.02
2013-10-17,71.6,60.2,53.6,62.1,56.4,50.9,99,89,59,29.76,29.43,10,2,0,0.34
2013-10-18,62.4,53.0,41.5,50.1,45.0,39.6,97,76,44,29.85,29.63,12,3,0,0.00
2013-10-19,51.3,44.4,36.7,50.8,43.7,36.4,99,98,80,29.85,29.55,9,2,0,0.13
2013-10-20,61.0,49.4,38.8,43.3,39.5,36.7,95,71,42,29.89,29.66,9,3,0,0.00
2013-10-21,67.3,49.0,33.6,45.8,38.5,33.3,99,73,35,30.01,29.72,8,2,0,0.00
2013-10-22,58.5,50.6,39.6,48.2,38.3,28.2,93,65,38,29.73,29.63,17,3,0,0.00
2013-10-23,47.7,42.4,38.7,39.6,35.3,31.9,86,76,61,29.71,29.56,6,2,0,0.00
2013-10-24,48.4,40.0,35.2,36.4,33.2,28.2,94,78,48,29.92,29.69,17,4,0,0.00
2013-10-25,53.4,42.8,36.9,37.0,32.9,28.5,86,70,44,30.11,29.91,13,5,0,0.00
2013-10-26,53.8,42.9,30.2,31.9,28.9,25.7,95,62,35,30.10,29.74,14,5,0,0.00
2013-10-27,51.4,44.4,32.4,36.4,33.3,30.6,95,66,49,29.98,29.74,14,3,0,0.00
2013-10-28,60.4,42.0,25.7,38.7,33.4,25.5,99,75,43,30.18,29.97,7,2,0,0.00
2013-10-29,55.4,43.0,31.3,38.2,35.4,30.5,98,76,52,30.32,30.16,6,2,0,0.00
2013-10-30,65.1,45.3,30.7,43.9,37.6,30.2,98,78,39,30.18,29.96,4,1,0,0.00
2013-10-31,62.8,55.4,48.2,60.1,53.2,43.0,97,92,82,30.02,29.46,15,2,0,0.18
2013-11-1,68.5,60.6,45.7,62.2,51.4,42.2,98,74,42,29.53,29.21,22,5,0,0.21
2013-11-2,57.4,47.0,37.8,46.2,42.2,37.5,99,85,54,29.71,29.48,14,2,0,0.01
2013-11-3,50.2,40.8,26.1,42.9,29.2,19.7,94,65,36,30.38,29.73,11,3,0,0.00
2013-11-4,43.9,32.4,20.3,25.1,21.4,17.5,98,68,35,30.56,30.38,8,2,0,0.00
2013-11-5,54.5,42.4,32.0,39.4,32.4,25.4,93,69,50,30.50,30.27,5,2,0,0.00
2013-11-6,64.2,52.4,38.1,51.2,45.9,36.9,96,80,62,30.28,29.76,9,2,0,0.00
2013-11-7,61.9,50.0,36.5,54.2,42.9,26.6,98,77,61,29.91,29.67,17,5,0,0.31
2013-11-8,45.9,39.8,34.2,32.4,29.1,25.9,78,65,53,30.15,29.86,17,6,0,0.00
2013-11-9,51.6,39.9,27.0,34.6,29.7,25.8,97,69,45,30.18,29.79,8,2,0,0.00
2013-11-10,51.1,45.5,38.1,38.7,32.7,29.1,83,62,47,30.02,29.70,28,6,0,0.00
2013-11-11,51.1,43.5,34.3,37.8,31.0,24.4,85,63,35,30.12,29.83,14,4,0,0.00
2013-11-12,41.7,32.4,25.5,38.2,22.0,12.1,92,68,35,30.28,29.88,14,4,0,0.04
2013-11-13,38.5,31.7,22.6,24.9,19.5,13.9,75,61,48,30.35,30.17,10,4,0,0.00
2013-11-14,53.4,37.6,27.3,22.1,19.2,11.8,76,51,19,30.16,30.00,8,4,0,0.00
2013-11-15,52.2,34.9,21.7,30.6,25.3,19.7,93,70,40,30.14,30.01,4,1,0,0.00
2013-11-16,59.0,45.3,28.9,45.5,36.9,27.1,93,73,55,30.20,30.03,6,2,0,0.00
2013-11-17,60.3,53.9,48.6,57.8,51.9,44.6,97,93,86,30.03,29.40,12,3,0,0.64
2013-11-18,61.0,51.8,41.7,59.0,37.2,27.1,94,60,36,29.79,29.37,21,7,0,0.12
2013-11-19,43.7,36.5,23.9,30.5,24.4,21.5,91,62,45,30.31,29.79,18,6,0,0.00
2013-11-20,44.6,30.2,19.8,26.6,20.6,11.0,98,72,25,30.48,30.28,8,2,0,0.00
2013-11-21,47.1,35.9,22.5,35.7,27.5,17.8,85,72,56,30.46,30.16,7,2,0,0.00
2013-11-22,48.2,42.1,39.2,45.6,40.2,33.7,99,93,70,30.18,29.87,18,2,0,0.05
2013-11-23,41.4,32.7,21.9,33.4,22.7,7.0,91,67,44,30.06,29.86,27,6,0,0.00
2013-11-24,27.3,22.1,17.8,17.1,6.7,1.4,88,53,33,30.31,30.02,23,7,0,0.00
2013-11-25,32.9,25.7,15.8,14.1,11.7,8.9,82,58,38,30.38,30.03,12,3,0,0.00
2013-11-26,32.9,30.6,29.3,32.0,29.2,11.8,99,95,41,30.13,29.52,7,2,0,0.29
2013-11-27,36.5,32.3,26.1,34.4,29.0,17.6,99,88,69,29.75,29.37,14,3,0,0.39
2013-11-28,31.3,26.3,22.6,24.0,21.6,18.1,95,82,65,30.32,29.76,8,3,0,0.00
2013-11-29,33.4,25.2,16.0,25.2,20.9,14.8,96,84,61,30.63,30.24,6,2,0,0.00
2013-11-30,32.7,21.7,11.1,21.3,17.2,10.0,96,84,60,30.61,30.24,5,2,0,0.00
2013-12-1,30.2,25.0,14.7,26.5,21.9,13.5,96,88,79,30.24,29.83,4,1,0,0.00
2013-12-2,37.0,31.7,27.1,32.0,29.3,25.7,97,91,82,29.86,29.69,6,1,0,0.00
2013-12-3,45.7,35.1,29.3,38.0,33.2,28.8,99,93,74,29.86,29.68,4,1,0,0.02
2013-12-4,44.1,35.4,30.7,39.0,34.2,30.5,99,95,82,30.00,29.81,5,1,0,0.00
2013-12-5,51.3,45.3,37.8,49.3,44.2,36.8,99,96,84,29.86,29.73,4,1,0,0.47
2013-12-6,49.1,39.2,31.1,48.8,38.1,30.9,99,96,81,30.09,29.75,7,2,0,0.36
2013-12-7,37.8,29.7,19.9,31.3,25.7,17.0,99,86,63,30.47,30.03,9,2,0,0.02
2013-12-8,27.7,22.2,16.2,25.6,19.9,15.3,98,91,73,30.49,30.09,9,3,0,0.00
2013-12-9,36.0,31.8,26.1,34.9,30.7,25.6,99,96,81,30.07,29.83,10,3,0,0.19
2013-12-10,34.0,29.8,24.4,30.2,19.7,10.1,87,66,46,30.04,29.79,17,5,0,0.00
2013-12-11,32.0,24.8,20.3,19.8,14.7,10.4,88,66,40,30.21,30.00,20,5,0,0.00
2013-12-12,23.9,20.0,17.2,18.9,8.1,3.5,89,60,45,30.28,29.95,12,4,0,0.00
2013-12-13,34.9,26.6,20.1,20.2,12.7,3.5,77,56,46,30.19,29.93,11,4,0,0.00
2013-12-14,27.1,24.5,21.7,26.6,21.7,17.2,98,90,74,30.26,29.62,14,6,0,0.00
2013-12-15,33.1,28.0,24.6,31.7,25.2,13.8,98,90,62,29.72,29.44,12,4,0,0.00
2013-12-16,27.1,18.6,10.2,15.0,10.1,8.1,91,70,48,30.07,29.71,16,4,0,0.00
2013-12-17,26.1,17.9,12.7,22.8,16.2,9.1,97,93,84,30.00,29.73,7,2,0,0.00
2013-12-18,34.7,26.1,14.9,24.9,20.8,14.2,97,81,62,30.03,29.78,9,3,0,0.00
2013-12-19,38.1,24.7,12.0,26.6,20.3,10.8,96,84,61,29.99,29.88,4,1,0,0.01
2013-12-20,37.6,32.3,26.2,34.3,30.0,24.7,97,91,81,29.91,29.73,4,1,0,0.07
2013-12-21,42.1,38.0,34.5,40.5,37.1,33.7,99,97,87,29.82,29.63,9,1,0,0.65
2013-12-22,63.1,51.6,36.9,57.6,49.2,36.6,99,92,80,29.77,29.48,13,3,0,0.08
2013-12-23,50.0,43.7,32.0,49.2,39.0,21.9,99,84,64,30.10,29.72,17,4,0,0.00
2013-12-24,34.9,27.4,18.9,27.0,19.0,9.2,91,71,57,30.35,30.00,18,4,0,0.00
2013-12-25,27.0,20.0,10.0,14.7,11.3,7.6,91,69,57,30.44,30.10,8,2,0,0.00
2013-12-26,36.0,28.2,23.2,30.3,23.3,14.3,94,82,58,30.17,29.98,9,2,0,0.03
2013-12-27,37.4,28.9,21.9,27.7,22.9,18.7,94,78,65,30.23,30.09,9,3,0,0.01
2013-12-28,52.9,35.2,19.8,31.8,26.6,18.8,96,74,43,30.09,29.90,12,2,0,0.00
2013-12-29,39.0,33.9,30.6,38.0,32.6,28.3,99,95,90,29.91,29.42,8,2,0,1.24
2013-12-30,40.5,30.9,21.4,38.2,22.6,11.1,95,71,58,30.07,29.56,13,6,0,0.01
2013-12-31,28.4,22.7,19.8,24.8,15.0,9.8,92,72,56,30.18,29.92,18,4,0,0.00
2014-1-1,27.0,23.2,19.0,23.1,19.3,13.3,93,85,77,30.28,30.02,7,4,0,0.00
2014-1-2,24.6,21.7,12.6,21.8,19.4,11.2,95,91,83,29.99,29.65,10,5,0,0.00